Year,Month,Day,Hour,Minute,Value (Times are PST for insolation in W/m^2)
2015,04,29,00,00,0.00
2015,04,29,00,01,0.00
2015,04,29,00,02,0.00
2015,04,29,00,03,0.00
2015,04,29,00,04,0.00
2015,04,29,00,05,0.00
2015,04,29,00,06,0.00
2015,04,29,00,07,0.00
2015,04,29,00,08,0.00
2015,04,29,00,09,0.00
2015,04,29,00,10,0.00
2015,04,29,00,11,0.00
2015,04,29,00,12,0.00
2015,04,29,00,13,0.00
2015,04,29,00,14,0.00
2015,04,29,00,15,0.00
2015,04,29,00,16,0.00
2015,04,29,00,17,0.00
2015,04,29,00,18,0.00
2015,04,29,00,19,0.00
2015,04,29,00,20,0.00
2015,04,29,00,21,0.00
2015,04,29,00,22,0.00
2015,04,29,00,23,0.00
2015,04,29,00,24,0.00
2015,04,29,00,25,0.00
2015,04,29,00,26,0.00
2015,04,29,00,27,0.00
2015,04,29,00,28,0.00
2015,04,29,00,29,0.00
2015,04,29,00,30,0.00
2015,04,29,00,31,0.00
2015,04,29,00,32,0.00
2015,04,29,00,33,0.00
2015,04,29,00,34,0.00
2015,04,29,00,35,0.00
2015,04,29,00,36,0.00
2015,04,29,00,37,0.00
2015,04,29,00,38,0.00
2015,04,29,00,39,0.00
2015,04,29,00,40,0.00
2015,04,29,00,41,0.00
2015,04,29,00,42,0.00
2015,04,29,00,43,0.00
2015,04,29,00,44,0.00
2015,04,29,00,45,0.00
2015,04,29,00,46,0.00
2015,04,29,00,47,0.00
2015,04,29,00,48,0.00
2015,04,29,00,49,0.00
2015,04,29,00,50,0.00
2015,04,29,00,51,0.00
2015,04,29,00,52,0.00
2015,04,29,00,53,0.00
2015,04,29,00,54,0.00
2015,04,29,00,55,0.00
2015,04,29,00,56,0.00
2015,04,29,00,57,0.00
2015,04,29,00,58,0.00
2015,04,29,00,59,0.00
2015,04,29,01,00,0.00
2015,04,29,01,01,0.00
2015,04,29,01,02,0.00
2015,04,29,01,03,0.00
2015,04,29,01,04,0.00
2015,04,29,01,05,0.00
2015,04,29,01,06,0.00
2015,04,29,01,07,0.00
2015,04,29,01,08,0.00
2015,04,29,01,09,0.00
2015,04,29,01,10,0.00
2015,04,29,01,11,0.00
2015,04,29,01,12,0.00
2015,04,29,01,13,0.00
2015,04,29,01,14,0.00
2015,04,29,01,15,0.00
2015,04,29,01,16,0.00
2015,04,29,01,17,0.00
2015,04,29,01,18,0.00
2015,04,29,01,19,0.00
2015,04,29,01,20,0.00
2015,04,29,01,21,0.00
2015,04,29,01,22,0.00
2015,04,29,01,23,0.00
2015,04,29,01,24,0.00
2015,04,29,01,25,0.00
2015,04,29,01,26,0.00
2015,04,29,01,27,0.00
2015,04,29,01,28,0.00
2015,04,29,01,29,0.00
2015,04,29,01,30,0.00
2015,04,29,01,31,0.00
2015,04,29,01,32,0.00
2015,04,29,01,33,0.00
2015,04,29,01,34,0.00
2015,04,29,01,35,0.00
2015,04,29,01,36,0.00
2015,04,29,01,37,0.00
2015,04,29,01,38,0.00
2015,04,29,01,39,0.00
2015,04,29,01,40,0.00
2015,04,29,01,41,0.00
2015,04,29,01,42,0.00
2015,04,29,01,43,0.00
2015,04,29,01,44,0.00
2015,04,29,01,45,0.00
2015,04,29,01,46,0.00
2015,04,29,01,47,0.00
2015,04,29,01,48,0.00
2015,04,29,01,49,0.00
2015,04,29,01,50,0.00
2015,04,29,01,51,0.00
2015,04,29,01,52,0.00
2015,04,29,01,53,0.00
2015,04,29,01,54,0.00
2015,04,29,01,55,0.00
2015,04,29,01,56,0.00
2015,04,29,01,57,0.00
2015,04,29,01,58,0.00
2015,04,29,01,59,0.00
2015,04,29,02,00,0.00
2015,04,29,02,01,0.00
2015,04,29,02,02,0.00
2015,04,29,02,03,0.00
2015,04,29,02,04,0.00
2015,04,29,02,05,0.00
2015,04,29,02,06,0.00
2015,04,29,02,07,0.00
2015,04,29,02,08,0.00
2015,04,29,02,09,0.00
2015,04,29,02,10,0.00
2015,04,29,02,11,0.00
2015,04,29,02,12,0.00
2015,04,29,02,13,0.00
2015,04,29,02,14,0.00
2015,04,29,02,15,0.00
2015,04,29,02,16,0.00
2015,04,29,02,17,0.00
2015,04,29,02,18,0.00
2015,04,29,02,19,0.00
2015,04,29,02,20,0.00
2015,04,29,02,21,0.00
2015,04,29,02,22,0.00
2015,04,29,02,23,0.00
2015,04,29,02,24,0.00
2015,04,29,02,25,0.00
2015,04,29,02,26,0.00
2015,04,29,02,27,0.00
2015,04,29,02,28,0.00
2015,04,29,02,29,0.00
2015,04,29,02,30,0.00
2015,04,29,02,31,0.00
2015,04,29,02,32,0.00
2015,04,29,02,33,0.00
2015,04,29,02,34,0.00
2015,04,29,02,35,0.00
2015,04,29,02,36,0.00
2015,04,29,02,37,0.00
2015,04,29,02,38,0.00
2015,04,29,02,39,0.00
2015,04,29,02,40,0.00
2015,04,29,02,41,0.00
2015,04,29,02,42,0.00
2015,04,29,02,43,0.00
2015,04,29,02,44,0.00
2015,04,29,02,45,0.00
2015,04,29,02,46,0.00
2015,04,29,02,47,0.00
2015,04,29,02,48,0.00
2015,04,29,02,49,0.00
2015,04,29,02,50,0.00
2015,04,29,02,51,0.00
2015,04,29,02,52,0.00
2015,04,29,02,53,0.00
2015,04,29,02,54,0.00
2015,04,29,02,55,0.00
2015,04,29,02,56,0.00
2015,04,29,02,57,0.00
2015,04,29,02,58,0.00
2015,04,29,02,59,0.00
2015,04,29,03,00,0.00
2015,04,29,03,01,0.00
2015,04,29,03,02,0.00
2015,04,29,03,03,0.00
2015,04,29,03,04,0.00
2015,04,29,03,05,0.00
2015,04,29,03,06,0.00
2015,04,29,03,07,0.00
2015,04,29,03,08,0.00
2015,04,29,03,09,0.00
2015,04,29,03,10,0.00
2015,04,29,03,11,0.00
2015,04,29,03,12,0.00
2015,04,29,03,13,0.00
2015,04,29,03,14,0.00
2015,04,29,03,15,0.00
2015,04,29,03,16,0.00
2015,04,29,03,17,0.00
2015,04,29,03,18,0.00
2015,04,29,03,19,0.00
2015,04,29,03,20,0.00
2015,04,29,03,21,0.00
2015,04,29,03,22,0.00
2015,04,29,03,23,0.00
2015,04,29,03,24,0.00
2015,04,29,03,25,0.00
2015,04,29,03,26,0.00
2015,04,29,03,27,0.00
2015,04,29,03,28,0.00
2015,04,29,03,29,0.00
2015,04,29,03,30,0.00
2015,04,29,03,31,0.00
2015,04,29,03,32,0.00
2015,04,29,03,33,0.00
2015,04,29,03,34,0.00
2015,04,29,03,35,0.00
2015,04,29,03,36,0.00
2015,04,29,03,37,0.00
2015,04,29,03,38,0.00
2015,04,29,03,39,0.00
2015,04,29,03,40,0.00
2015,04,29,03,41,0.00
2015,04,29,03,42,0.00
2015,04,29,03,43,0.00
2015,04,29,03,44,0.00
2015,04,29,03,45,0.00
2015,04,29,03,46,0.00
2015,04,29,03,47,0.00
2015,04,29,03,48,0.00
2015,04,29,03,49,0.00
2015,04,29,03,50,0.00
2015,04,29,03,51,0.00
2015,04,29,03,52,0.00
2015,04,29,03,53,0.00
2015,04,29,03,54,0.00
2015,04,29,03,55,0.00
2015,04,29,03,56,0.00
2015,04,29,03,57,0.00
2015,04,29,03,58,0.00
2015,04,29,03,59,0.00
2015,04,29,04,00,0.00
2015,04,29,04,01,0.00
2015,04,29,04,02,0.00
2015,04,29,04,03,0.00
2015,04,29,04,04,0.00
2015,04,29,04,05,0.00
2015,04,29,04,06,0.00
2015,04,29,04,07,0.00
2015,04,29,04,08,0.00
2015,04,29,04,09,0.00
2015,04,29,04,10,0.00
2015,04,29,04,11,0.00
2015,04,29,04,12,0.00
2015,04,29,04,13,0.00
2015,04,29,04,14,0.00
2015,04,29,04,15,0.00
2015,04,29,04,16,0.00
2015,04,29,04,17,0.00
2015,04,29,04,18,0.00
2015,04,29,04,19,0.00
2015,04,29,04,20,0.00
2015,04,29,04,21,0.00
2015,04,29,04,22,0.00
2015,04,29,04,23,0.00
2015,04,29,04,24,0.00
2015,04,29,04,25,0.00
2015,04,29,04,26,0.00
2015,04,29,04,27,0.00
2015,04,29,04,28,0.00
2015,04,29,04,29,0.00
2015,04,29,04,30,0.00
2015,04,29,04,31,0.00
2015,04,29,04,32,0.00
2015,04,29,04,33,0.00
2015,04,29,04,34,0.00
2015,04,29,04,35,0.00
2015,04,29,04,36,0.00
2015,04,29,04,37,0.00
2015,04,29,04,38,0.00
2015,04,29,04,39,0.00
2015,04,29,04,40,0.00
2015,04,29,04,41,0.00
2015,04,29,04,42,0.00
2015,04,29,04,43,0.00
2015,04,29,04,44,0.00
2015,04,29,04,45,0.00
2015,04,29,04,46,0.00
2015,04,29,04,47,0.00
2015,04,29,04,48,0.00
2015,04,29,04,49,0.00
2015,04,29,04,50,0.00
2015,04,29,04,51,0.00
2015,04,29,04,52,0.00
2015,04,29,04,53,0.00
2015,04,29,04,54,0.00
2015,04,29,04,55,0.00
2015,04,29,04,56,0.00
2015,04,29,04,57,0.00
2015,04,29,04,58,0.00
2015,04,29,04,59,0.00
2015,04,29,05,00,0.00
2015,04,29,05,01,0.00
2015,04,29,05,02,0.00
2015,04,29,05,03,0.00
2015,04,29,05,04,0.00
2015,04,29,05,05,0.00
2015,04,29,05,06,0.00
2015,04,29,05,07,0.00
2015,04,29,05,08,0.00
2015,04,29,05,09,0.00
2015,04,29,05,10,0.00
2015,04,29,05,11,0.00
2015,04,29,05,12,0.00
2015,04,29,05,13,0.00
2015,04,29,05,14,0.00
2015,04,29,05,15,0.00
2015,04,29,05,16,0.00
2015,04,29,05,17,0.00
2015,04,29,05,18,0.00
2015,04,29,05,19,0.00
2015,04,29,05,20,0.00
2015,04,29,05,21,0.00
2015,04,29,05,22,0.00
2015,04,29,05,23,0.00
2015,04,29,05,24,0.00
2015,04,29,05,25,0.00
2015,04,29,05,26,0.00
2015,04,29,05,27,0.00
2015,04,29,05,28,0.00
2015,04,29,05,29,0.00
2015,04,29,05,30,0.00
2015,04,29,05,31,0.00
2015,04,29,05,32,0.00
2015,04,29,05,33,0.00
2015,04,29,05,34,0.00
2015,04,29,05,35,0.00
2015,04,29,05,36,0.00
2015,04,29,05,37,0.00
2015,04,29,05,38,0.00
2015,04,29,05,39,0.00
2015,04,29,05,40,0.00
2015,04,29,05,41,0.00
2015,04,29,05,42,0.00
2015,04,29,05,43,0.00
2015,04,29,05,44,0.00
2015,04,29,05,45,0.00
2015,04,29,05,46,0.00
2015,04,29,05,47,0.00
2015,04,29,05,48,0.00
2015,04,29,05,49,0.00
2015,04,29,05,50,0.00
2015,04,29,05,51,0.00
2015,04,29,05,52,0.00
2015,04,29,05,53,0.00
2015,04,29,05,54,0.00
2015,04,29,05,55,0.00
2015,04,29,05,56,0.00
2015,04,29,05,57,0.00
2015,04,29,05,58,0.00
2015,04,29,05,59,0.00
2015,04,29,06,00,0.00
2015,04,29,06,01,0.00
2015,04,29,06,02,0.00
2015,04,29,06,03,0.00
2015,04,29,06,04,0.00
2015,04,29,06,05,0.00
2015,04,29,06,06,0.00
2015,04,29,06,07,0.00
2015,04,29,06,08,0.00
2015,04,29,06,09,0.00
2015,04,29,06,10,0.00
2015,04,29,06,11,2.80
2015,04,29,06,12,5.00
2015,04,29,06,13,5.00
2015,04,29,06,14,6.60
2015,04,29,06,15,7.00
2015,04,29,06,16,8.90
2015,04,29,06,17,9.30
2015,04,29,06,18,11.00
2015,04,29,06,19,11.30
2015,04,29,06,20,12.00
2015,04,29,06,21,13.00
2015,04,29,06,22,14.00
2015,04,29,06,23,14.00
2015,04,29,06,24,14.00
2015,04,29,06,25,15.60
2015,04,29,06,26,16.00
2015,04,29,06,27,16.00
2015,04,29,06,28,16.00
2015,04,29,06,29,16.00
2015,04,29,06,30,16.60
2015,04,29,06,31,18.00
2015,04,29,06,32,18.00
2015,04,29,06,33,18.00
2015,04,29,06,34,18.00
2015,04,29,06,35,18.00
2015,04,29,06,36,18.80
2015,04,29,06,37,19.00
2015,04,29,06,38,19.00
2015,04,29,06,39,19.00
2015,04,29,06,40,19.40
2015,04,29,06,41,21.00
2015,04,29,06,42,21.00
2015,04,29,06,43,21.00
2015,04,29,06,44,21.00
2015,04,29,06,45,21.00
2015,04,29,06,46,22.40
2015,04,29,06,47,23.00
2015,04,29,06,48,23.00
2015,04,29,06,49,23.00
2015,04,29,06,50,23.20
2015,04,29,06,51,25.00
2015,04,29,06,52,25.30
2015,04,29,06,53,26.70
2015,04,29,06,54,28.00
2015,04,29,06,55,29.10
2015,04,29,06,56,31.30
2015,04,29,06,57,32.00
2015,04,29,06,58,32.80
2015,04,29,06,59,34.80
2015,04,29,07,00,37.00
2015,04,29,07,01,39.10
2015,04,29,07,02,40.40
2015,04,29,07,03,42.60
2015,04,29,07,04,44.70
2015,04,29,07,05,47.40
2015,04,29,07,06,50.10
2015,04,29,07,07,52.30
2015,04,29,07,08,53.70
2015,04,29,07,09,54.00
2015,04,29,07,10,55.80
2015,04,29,07,11,56.00
2015,04,29,07,12,56.00
2015,04,29,07,13,56.40
2015,04,29,07,14,58.60
2015,04,29,07,15,60.70
2015,04,29,07,16,63.40
2015,04,29,07,17,66.10
2015,04,29,07,18,68.30
2015,04,29,07,19,69.00
2015,04,29,07,20,69.80
2015,04,29,07,21,70.00
2015,04,29,07,22,72.00
2015,04,29,07,23,74.30
2015,04,29,07,24,76.20
2015,04,29,07,25,77.60
2015,04,29,07,26,79.70
2015,04,29,07,27,81.00
2015,04,29,07,28,81.00
2015,04,29,07,29,81.00
2015,04,29,07,30,81.00
2015,04,29,07,31,79.40
2015,04,29,07,32,79.00
2015,04,29,07,33,77.10
2015,04,29,07,34,76.00
2015,04,29,07,35,76.00
2015,04,29,07,36,75.50
2015,04,29,07,37,74.00
2015,04,29,07,38,74.00
2015,04,29,07,39,72.90
2015,04,29,07,40,72.00
2015,04,29,07,41,72.00
2015,04,29,07,42,73.60
2015,04,29,07,43,74.00
2015,04,29,07,44,75.90
2015,04,29,07,45,76.10
2015,04,29,07,46,76.80
2015,04,29,07,47,76.00
2015,04,29,07,48,76.00
2015,04,29,07,49,76.50
2015,04,29,07,50,78.10
2015,04,29,07,51,80.20
2015,04,29,07,52,82.40
2015,04,29,07,53,83.80
2015,04,29,07,54,85.70
2015,04,29,07,55,87.90
2015,04,29,07,56,89.40
2015,04,29,07,57,86.00
2015,04,29,07,58,86.00
2015,04,29,07,59,86.00
2015,04,29,08,00,86.00
2015,04,29,08,01,87.10
2015,04,29,08,02,89.30
2015,04,29,08,03,94.90
2015,04,29,08,04,114.00
2015,04,29,08,05,137.50
2015,04,29,08,06,161.70
2015,04,29,08,07,148.20
2015,04,29,08,08,141.10
2015,04,29,08,09,140.10
2015,04,29,08,10,149.70
2015,04,29,08,11,151.00
2015,04,29,08,12,212.70
2015,04,29,08,13,235.60
2015,04,29,08,14,184.10
2015,04,29,08,15,191.80
2015,04,29,08,16,192.60
2015,04,29,08,17,189.20
2015,04,29,08,18,173.90
2015,04,29,08,19,237.00
2015,04,29,08,20,273.90
2015,04,29,08,21,302.40
2015,04,29,08,22,318.00
2015,04,29,08,23,322.00
2015,04,29,08,24,337.40
2015,04,29,08,25,333.20
2015,04,29,08,26,321.60
2015,04,29,08,27,320.00
2015,04,29,08,28,286.10
2015,04,29,08,29,282.00
2015,04,29,08,30,317.30
2015,04,29,08,31,351.90
2015,04,29,08,32,321.20
2015,04,29,08,33,334.90
2015,04,29,08,34,321.60
2015,04,29,08,35,306.00
2015,04,29,08,36,306.00
2015,04,29,08,37,367.40
2015,04,29,08,38,366.30
2015,04,29,08,39,397.10
2015,04,29,08,40,384.00
2015,04,29,08,41,378.20
2015,04,29,08,42,368.00
2015,04,29,08,43,337.70
2015,04,29,08,44,355.90
2015,04,29,08,45,322.60
2015,04,29,08,46,313.60
2015,04,29,08,47,287.60
2015,04,29,08,48,296.90
2015,04,29,08,49,275.20
2015,04,29,08,50,328.90
2015,04,29,08,51,360.50
2015,04,29,08,52,369.90
2015,04,29,08,53,358.20
2015,04,29,08,54,335.60
2015,04,29,08,55,387.20
2015,04,29,08,56,428.30
2015,04,29,08,57,440.40
2015,04,29,08,58,439.00
2015,04,29,08,59,439.90
2015,04,29,09,00,445.40
2015,04,29,09,01,403.80
2015,04,29,09,02,346.30
2015,04,29,09,03,290.30
2015,04,29,09,04,326.20
2015,04,29,09,05,364.00
2015,04,29,09,06,357.20
2015,04,29,09,07,365.00
2015,04,29,09,08,373.00
2015,04,29,09,09,324.40
2015,04,29,09,10,241.30
2015,04,29,09,11,206.60
2015,04,29,09,12,232.50
2015,04,29,09,13,220.70
2015,04,29,09,14,220.90
2015,04,29,09,15,298.90
2015,04,29,09,16,327.00
2015,04,29,09,17,390.60
2015,04,29,09,18,459.00
2015,04,29,09,19,459.00
2015,04,29,09,20,424.50
2015,04,29,09,21,448.30
2015,04,29,09,22,488.10
2015,04,29,09,23,491.50
2015,04,29,09,24,479.60
2015,04,29,09,25,489.70
2015,04,29,09,26,482.20
2015,04,29,09,27,482.50
2015,04,29,09,28,538.10
2015,04,29,09,29,552.00
2015,04,29,09,30,557.30
2015,04,29,09,31,561.00
2015,04,29,09,32,561.00
2015,04,29,09,33,632.60
2015,04,29,09,34,653.70
2015,04,29,09,35,617.90
2015,04,29,09,36,344.60
2015,04,29,09,37,414.20
2015,04,29,09,38,413.70
2015,04,29,09,39,383.60
2015,04,29,09,40,332.30
2015,04,29,09,41,302.30
2015,04,29,09,42,288.00
2015,04,29,09,43,285.00
2015,04,29,09,44,283.30
2015,04,29,09,45,291.70
2015,04,29,09,46,293.00
2015,04,29,09,47,287.00
2015,04,29,09,48,300.50
2015,04,29,09,49,345.60
2015,04,29,09,50,396.00
2015,04,29,09,51,463.20
2015,04,29,09,52,517.00
2015,04,29,09,53,420.60
2015,04,29,09,54,392.40
2015,04,29,09,55,396.00
2015,04,29,09,56,283.80
2015,04,29,09,57,290.70
2015,04,29,09,58,275.30
2015,04,29,09,59,250.00
2015,04,29,10,00,247.80
2015,04,29,10,01,258.20
2015,04,29,10,02,262.50
2015,04,29,10,03,241.80
2015,04,29,10,04,275.70
2015,04,29,10,05,271.00
2015,04,29,10,06,265.00
2015,04,29,10,07,291.30
2015,04,29,10,08,299.00
2015,04,29,10,09,309.00
2015,04,29,10,10,364.10
2015,04,29,10,11,379.70
2015,04,29,10,12,352.00
2015,04,29,10,13,415.80
2015,04,29,10,14,454.90
2015,04,29,10,15,391.70
2015,04,29,10,16,371.00
2015,04,29,10,17,371.00
2015,04,29,10,18,371.00
2015,04,29,10,19,371.00
2015,04,29,10,20,371.00
2015,04,29,10,21,398.00
2015,04,29,10,22,453.50
2015,04,29,10,23,434.20
2015,04,29,10,24,427.90
2015,04,29,10,25,427.00
2015,04,29,10,26,431.90
2015,04,29,10,27,414.60
2015,04,29,10,28,394.70
2015,04,29,10,29,387.00
2015,04,29,10,30,381.70
2015,04,29,10,31,387.20
2015,04,29,10,32,393.20
2015,04,29,10,33,407.30
2015,04,29,10,34,402.90
2015,04,29,10,35,398.00
2015,04,29,10,36,397.00
2015,04,29,10,37,408.30
2015,04,29,10,38,481.40
2015,04,29,10,39,583.10
2015,04,29,10,40,592.40
2015,04,29,10,41,592.00
2015,04,29,10,42,581.10
2015,04,29,10,43,539.90
2015,04,29,10,44,578.50
2015,04,29,10,45,647.00
2015,04,29,10,46,674.70
2015,04,29,10,47,717.70
2015,04,29,10,48,747.00
2015,04,29,10,49,690.00
2015,04,29,10,50,757.90
2015,04,29,10,51,768.00
2015,04,29,10,52,767.40
2015,04,29,10,53,758.40
2015,04,29,10,54,738.60
2015,04,29,10,55,730.70
2015,04,29,10,56,713.70
2015,04,29,10,57,723.90
2015,04,29,10,58,733.70
2015,04,29,10,59,733.00
2015,04,29,11,00,733.00
2015,04,29,11,01,728.70
2015,04,29,11,02,733.10
2015,04,29,11,03,740.60
2015,04,29,11,04,746.30
2015,04,29,11,05,755.30
2015,04,29,11,06,764.90
2015,04,29,11,07,768.00
2015,04,29,11,08,761.80
2015,04,29,11,09,756.00
2015,04,29,11,10,756.00
2015,04,29,11,11,765.30
2015,04,29,11,12,771.40
2015,04,29,11,13,768.10
2015,04,29,11,14,766.80
2015,04,29,11,15,773.00
2015,04,29,11,16,774.80
2015,04,29,11,17,779.00
2015,04,29,11,18,776.30
2015,04,29,11,19,771.40
2015,04,29,11,20,771.30
2015,04,29,11,21,772.70
2015,04,29,11,22,777.70
2015,04,29,11,23,781.60
2015,04,29,11,24,790.70
2015,04,29,11,25,801.10
2015,04,29,11,26,812.40
2015,04,29,11,27,833.40
2015,04,29,11,28,867.60
2015,04,29,11,29,908.90
2015,04,29,11,30,940.00
2015,04,29,11,31,940.00
2015,04,29,11,32,587.40
2015,04,29,11,33,432.50
2015,04,29,11,34,418.60
2015,04,29,11,35,450.70
2015,04,29,11,36,489.30
2015,04,29,11,37,508.00
2015,04,29,11,38,508.00
2015,04,29,11,39,580.70
2015,04,29,11,40,703.20
2015,04,29,11,41,637.60
2015,04,29,11,42,606.00
2015,04,29,11,43,520.90
2015,04,29,11,44,516.90
2015,04,29,11,45,584.40
2015,04,29,11,46,539.00
2015,04,29,11,47,512.10
2015,04,29,11,48,574.60
2015,04,29,11,49,558.00
2015,04,29,11,50,546.90
2015,04,29,11,51,562.80
2015,04,29,11,52,570.00
2015,04,29,11,53,765.60
2015,04,29,11,54,945.70
2015,04,29,11,55,965.00
2015,04,29,11,56,1072.60
2015,04,29,11,57,1086.00
2015,04,29,11,58,1086.00
2015,04,29,11,59,1086.00
2015,04,29,12,00,1086.00
2015,04,29,12,01,913.70
2015,04,29,12,02,656.20
2015,04,29,12,03,698.70
2015,04,29,12,04,717.00
2015,04,29,12,05,922.50
2015,04,29,12,06,1009.00
2015,04,29,12,07,1009.00
2015,04,29,12,08,599.00
2015,04,29,12,09,472.80
2015,04,29,12,10,454.40
2015,04,29,12,11,452.60
2015,04,29,12,12,455.90
2015,04,29,12,13,463.00
2015,04,29,12,14,465.80
2015,04,29,12,15,455.40
2015,04,29,12,16,515.30
2015,04,29,12,17,548.00
2015,04,29,12,18,467.90
2015,04,29,12,19,532.10
2015,04,29,12,20,548.00
2015,04,29,12,21,558.60
2015,04,29,12,22,605.00
2015,04,29,12,23,520.90
2015,04,29,12,24,366.90
2015,04,29,12,25,345.20
2015,04,29,12,26,335.90
2015,04,29,12,27,334.00
2015,04,29,12,28,335.60
2015,04,29,12,29,334.30
2015,04,29,12,30,325.00
2015,04,29,12,31,313.40
2015,04,29,12,32,298.60
2015,04,29,12,33,290.00
2015,04,29,12,34,299.60
2015,04,29,12,35,341.80
2015,04,29,12,36,373.50
2015,04,29,12,37,408.00
2015,04,29,12,38,470.70
2015,04,29,12,39,490.00
2015,04,29,12,40,539.40
2015,04,29,12,41,497.20
2015,04,29,12,42,568.00
2015,04,29,12,43,543.60
2015,04,29,12,44,436.00
2015,04,29,12,45,442.70
2015,04,29,12,46,447.30
2015,04,29,12,47,461.30
2015,04,29,12,48,453.60
2015,04,29,12,49,442.40
2015,04,29,12,50,446.00
2015,04,29,12,51,486.90
2015,04,29,12,52,539.70
2015,04,29,12,53,554.00
2015,04,29,12,54,636.50
2015,04,29,12,55,993.90
2015,04,29,12,56,1026.00
2015,04,29,12,57,1034.20
2015,04,29,12,58,1042.00
2015,04,29,12,59,813.30
2015,04,29,13,00,656.00
2015,04,29,13,01,656.00
2015,04,29,13,02,656.00
2015,04,29,13,03,972.70
2015,04,29,13,04,998.00
2015,04,29,13,05,998.00
2015,04,29,13,06,843.50
2015,04,29,13,07,443.30
2015,04,29,13,08,508.20
2015,04,29,13,09,581.40
2015,04,29,13,10,619.00
2015,04,29,13,11,509.00
2015,04,29,13,12,516.20
2015,04,29,13,13,534.00
2015,04,29,13,14,533.10
2015,04,29,13,15,533.00
2015,04,29,13,16,533.00
2015,04,29,13,17,533.00
2015,04,29,13,18,533.00
2015,04,29,13,19,467.20
2015,04,29,13,20,385.00
2015,04,29,13,21,385.00
2015,04,29,13,22,470.30
2015,04,29,13,23,573.70
2015,04,29,13,24,591.00
2015,04,29,13,25,591.00
2015,04,29,13,26,588.70
2015,04,29,13,27,570.00
2015,04,29,13,28,523.90
2015,04,29,13,29,411.30
2015,04,29,13,30,435.30
2015,04,29,13,31,419.60
2015,04,29,13,32,423.20
2015,04,29,13,33,463.40
2015,04,29,13,34,480.00
2015,04,29,13,35,480.00
2015,04,29,13,36,610.00
2015,04,29,13,37,597.00
2015,04,29,13,38,447.50
2015,04,29,13,39,406.10
2015,04,29,13,40,441.70
2015,04,29,13,41,457.00
2015,04,29,13,42,442.70
2015,04,29,13,43,453.00
2015,04,29,13,44,428.70
2015,04,29,13,45,380.30
2015,04,29,13,46,336.10
2015,04,29,13,47,309.20
2015,04,29,13,48,296.40
2015,04,29,13,49,291.60
2015,04,29,13,50,288.70
2015,04,29,13,51,280.90
2015,04,29,13,52,266.90
2015,04,29,13,53,250.20
2015,04,29,13,54,235.30
2015,04,29,13,55,225.10
2015,04,29,13,56,221.40
2015,04,29,13,57,224.60
2015,04,29,13,58,229.00
2015,04,29,13,59,235.00
2015,04,29,14,00,244.50
2015,04,29,14,01,254.90
2015,04,29,14,02,272.90
2015,04,29,14,03,304.40
2015,04,29,14,04,330.70
2015,04,29,14,05,336.00
2015,04,29,14,06,447.20
2015,04,29,14,07,494.00
2015,04,29,14,08,618.70
2015,04,29,14,09,630.10
2015,04,29,14,10,497.40
2015,04,29,14,11,489.70
2015,04,29,14,12,506.00
2015,04,29,14,13,506.00
2015,04,29,14,14,506.00
2015,04,29,14,15,817.10
2015,04,29,14,16,1113.10
2015,04,29,14,17,1118.00
2015,04,29,14,18,1118.00
2015,04,29,14,19,1118.00
2015,04,29,14,20,1118.00
2015,04,29,14,21,1042.80
2015,04,29,14,22,452.20
2015,04,29,14,23,508.10
2015,04,29,14,24,534.00
2015,04,29,14,25,534.00
2015,04,29,14,26,643.40
2015,04,29,14,27,721.30
2015,04,29,14,28,688.80
2015,04,29,14,29,682.00
2015,04,29,14,30,386.90
2015,04,29,14,31,341.30
2015,04,29,14,32,341.00
2015,04,29,14,33,360.00
2015,04,29,14,34,373.90
2015,04,29,14,35,376.00
2015,04,29,14,36,368.40
2015,04,29,14,37,355.40
2015,04,29,14,38,329.30
2015,04,29,14,39,300.50
2015,04,29,14,40,282.30
2015,04,29,14,41,273.00
2015,04,29,14,42,271.10
2015,04,29,14,43,273.00
2015,04,29,14,44,281.40
2015,04,29,14,45,283.50
2015,04,29,14,46,286.90
2015,04,29,14,47,295.30
2015,04,29,14,48,316.00
2015,04,29,14,49,329.00
2015,04,29,14,50,329.00
2015,04,29,14,51,329.00
2015,04,29,14,52,329.00
2015,04,29,14,53,325.00
2015,04,29,14,54,319.40
2015,04,29,14,55,314.60
2015,04,29,14,56,309.90
2015,04,29,14,57,299.00
2015,04,29,14,58,297.70
2015,04,29,14,59,294.30
2015,04,29,15,00,282.10
2015,04,29,15,01,271.70
2015,04,29,15,02,269.00
2015,04,29,15,03,279.20
2015,04,29,15,04,301.80
2015,04,29,15,05,344.00
2015,04,29,15,06,397.60
2015,04,29,15,07,422.00
2015,04,29,15,08,412.70
2015,04,29,15,09,383.70
2015,04,29,15,10,360.80
2015,04,29,15,11,362.10
2015,04,29,15,12,371.70
2015,04,29,15,13,364.70
2015,04,29,15,14,362.00
2015,04,29,15,15,340.70
2015,04,29,15,16,343.30
2015,04,29,15,17,347.10
2015,04,29,15,18,352.00
2015,04,29,15,19,352.00
2015,04,29,15,20,344.90
2015,04,29,15,21,324.10
2015,04,29,15,22,298.20
2015,04,29,15,23,271.80
2015,04,29,15,24,251.80
2015,04,29,15,25,236.10
2015,04,29,15,26,222.00
2015,04,29,15,27,218.60
2015,04,29,15,28,197.90
2015,04,29,15,29,193.60
2015,04,29,15,30,198.10
2015,04,29,15,31,211.70
2015,04,29,15,32,236.00
2015,04,29,15,33,257.50
2015,04,29,15,34,262.70
2015,04,29,15,35,256.80
2015,04,29,15,36,256.70
2015,04,29,15,37,258.00
2015,04,29,15,38,260.80
2015,04,29,15,39,267.00
2015,04,29,15,40,274.00
2015,04,29,15,41,293.30
2015,04,29,15,42,292.00
2015,04,29,15,43,285.30
2015,04,29,15,44,277.20
2015,04,29,15,45,280.70
2015,04,29,15,46,297.00
2015,04,29,15,47,317.20
2015,04,29,15,48,331.40
2015,04,29,15,49,339.80
2015,04,29,15,50,348.40
2015,04,29,15,51,361.10
2015,04,29,15,52,366.60
2015,04,29,15,53,362.90
2015,04,29,15,54,359.50
2015,04,29,15,55,365.70
2015,04,29,15,56,370.40
2015,04,29,15,57,364.10
2015,04,29,15,58,345.80
2015,04,29,15,59,310.60
2015,04,29,16,00,268.90
2015,04,29,16,01,240.40
2015,04,29,16,02,227.20
2015,04,29,16,03,224.40
2015,04,29,16,04,229.90
2015,04,29,16,05,240.20
2015,04,29,16,06,252.50
2015,04,29,16,07,265.00
2015,04,29,16,08,278.30
2015,04,29,16,09,288.70
2015,04,29,16,10,293.70
2015,04,29,16,11,278.70
2015,04,29,16,12,257.00
2015,04,29,16,13,244.00
2015,04,29,16,14,236.70
2015,04,29,16,15,220.80
2015,04,29,16,16,217.00
2015,04,29,16,17,218.50
2015,04,29,16,18,224.90
2015,04,29,16,19,234.80
2015,04,29,16,20,237.00
2015,04,29,16,21,252.60
2015,04,29,16,22,257.90
2015,04,29,16,23,272.50
2015,04,29,16,24,287.10
2015,04,29,16,25,285.00
2015,04,29,16,26,285.00
2015,04,29,16,27,289.70
2015,04,29,16,28,294.00
2015,04,29,16,29,317.20
2015,04,29,16,30,298.20
2015,04,29,16,31,260.20
2015,04,29,16,32,242.00
2015,04,29,16,33,241.00
2015,04,29,16,34,241.00
2015,04,29,16,35,247.20
2015,04,29,16,36,266.50
2015,04,29,16,37,267.20
2015,04,29,16,38,263.40
2015,04,29,16,39,259.60
2015,04,29,16,40,257.30
2015,04,29,16,41,252.30
2015,04,29,16,42,239.10
2015,04,29,16,43,221.30
2015,04,29,16,44,198.90
2015,04,29,16,45,190.90
2015,04,29,16,46,200.40
2015,04,29,16,47,216.00
2015,04,29,16,48,239.60
2015,04,29,16,49,277.60
2015,04,29,16,50,273.90
2015,04,29,16,51,258.10
2015,04,29,16,52,240.70
2015,04,29,16,53,217.40
2015,04,29,16,54,201.00
2015,04,29,16,55,192.90
2015,04,29,16,56,191.60
2015,04,29,16,57,188.20
2015,04,29,16,58,177.00
2015,04,29,16,59,159.30
2015,04,29,17,00,144.80
2015,04,29,17,01,133.70
2015,04,29,17,02,125.30
2015,04,29,17,03,120.80
2015,04,29,17,04,120.90
2015,04,29,17,05,126.60
2015,04,29,17,06,132.20
2015,04,29,17,07,136.30
2015,04,29,17,08,144.30
2015,04,29,17,09,153.30
2015,04,29,17,10,158.00
2015,04,29,17,11,164.70